SCP
1 1 1 1 1 0 0 0 0 0 0 0 0 0 0 0 0 0 0 0 0 0 0 0 0 0 0 0 0 1 1 1 1 0 0 1 1 1 1 1 1 1 1 1 1 1 1 1 1
1 1 1 1 1 0 0 0 0 0 0 0 0 0 0 0 0 0 0 0 0 0 0 0 0 0 0 0 0 0 1 1 1 1 0 1 1 1 1 1 1 1 1 1 1 1 1 1 0
1 1 1 1 0 0 0 0 0 0 0 0 0 0 0 0 0 0 0 0 0 0 0 0 0 0 0 0 0 1 1 1 1 1 0 1 1 1 1 1 1 1 1 1 1 1 0 0 0
1 1 1 0 0 0 0 0 0 0 1 1 1 1 1 0 0 0 0 0 0 0 0 0 0 0 0 0 0 1 1 1 1 1 1 1 1 1 1 1 1 1 1 1 1 0 0 0 0
0 0 0 0 0 0 0 0 0 0 1 1 1 1 1 1 0 0 0 0 0 0 0 1 1 0 0 0 0 1 1 1 1 1 1 1 1 1 1 1 1 1 1 1 1 0 0 1 1
0 0 0 0 0 0 0 0 0 0 1 1 1 1 1 1 0 0 0 0 0 0 1 1 1 0 0 0 0 1 1 1 1 1 1 1 1 1 1 1 1 1 1 1 1 1 1 1 1
0 0 0 0 0 0 0 0 0 0 1 1 1 1 2 1 1 1 1 0 0 0 1 1 1 1 0 0 0 0 1 1 1 1 1 1 1 1 1 1 1 1 1 1 1 1 1 1 1
0 0 0 0 0 0 0 0 0 0 1 1 1 1 2 2 1 1 1 1 0 1 1 1 1 1 1 0 0 0 1 1 1 1 1 1 1 1 1 1 1 1 1 1 1 1 1 1 1
0 0 0 0 0 0 0 0 0 0 1 1 1 1 2 2 2 1 1 1 1 1 1 1 1 1 1 0 0 0 1 1 1 1 1 1 1 1 1 1 1 1 1 1 1 1 1 1 1
0 0 0 0 0 0 0 0 0 0 1 1 1 2 2 3 2 2 1 1 1 1 1 1 1 1 1 1 1 1 1 1 1 1 1 1 1 1 1 1 1 1 1 1 1 1 1 1 1
0 0 0 0 0 0 0 0 0 0 1 1 1 2 3 3 2 2 1 1 1 1 1 1 1 1 1 1 1 1 1 1 1 1 1 1 1 0 0 0 1 1 1 1 1 1 1 1 1
0 0 0 0 0 0 0 0 0 1 1 1 1 2 2 2 2 2 1 1 1 1 1 1 1 1 1 1 1 1 0 0 0 1 1 0 0 0 0 0 0 0 1 0 0 0 0 0 0
0 0 0 0 0 0 0 0 0 0 0 1 1 2 2 2 2 2 2 1 2 2 1 1 1 1 1 1 1 1 0 0 0 0 0 0 0 0 0 0 0 0 0 0 0 0 1 1 0
0 0 0 0 0 0 0 0 0 0 0 1 1 1 1 2 2 2 2 2 2 2 2 2 1 1 1 1 1 1 0 0 0 0 0 0 1 0 0 1 1 1 1 1 1 1 1 1 1
0 0 0 0 0 0 0 0 0 0 1 1 1 1 1 1 2 2 2 2 2 2 2 2 2 1 1 1 1 1 1 1 1 1 1 1 1 1 1 1 1 1 1 1 1 1 1 1 1
0 0 0 0 0 0 0 0 0 0 1 1 1 1 1 1 1 2 2 2 2 2 2 2 2 2 2 2 1 1 1 1 1 1 1 2 2 1 1 1 1 2 2 2 2 2 2 1 1
0 0 0 0 0 0 0 0 0 0 0 1 1 1 1 1 1 1 2 2 2 3 3 3 3 2 2 2 2 2 2 2 2 2 2 3 3 2 2 2 2 2 3 3 3 3 3 2 2
0 0 0 0 0 0 0 0 0 0 0 1 1 1 1 1 1 1 2 2 2 3 4 4 4 3 3 2 2 2 2 2 2 2 3 3 3 3 3 2 2 3 3 4 4 4 3 3 2
0 0 0 0 0 0 0 0 0 0 0 1 1 1 1 1 1 1 1 2 2 3 4 4 4 4 4 3 3 3 3 3 3 3 3 4 4 4 3 2 2 3 3 3 3 3 3 3 3
0 0 0 0 0 0 0 0 0 1 1 1 1 1 1 1 1 1 1 2 2 3 3 4 5 5 4 4 4 3 3 3 3 3 4 4 4 4 3 2 2 2 2 3 3 3 3 3 3
0 0 0 0 0 0 0 0 1 1 1 1 1 1 1 1 1 1 2 2 2 2 3 4 4 4 5 5 4 4 3 3 3 3 4 4 4 4 3 2 2 2 2 2 2 2 2 2 3
0 0 0 0 0 0 0 1 1 1 1 1 1 1 1 1 1 1 2 2 2 2 2 3 3 4 4 5 4 4 4 3 3 3 4 4 5 4 3 3 2 2 2 2 2 2 2 2 2
0 0 0 0 0 0 0 1 1 1 1 1 0 1 1 1 1 1 2 2 2 2 3 3 3 3 4 4 4 4 3 3 2 2 3 4 4 4 3 3 3 2 2 2 2 2 2 2 2
0 0 0 0 0 0 0 0 0 1 1 1 0 1 1 1 1 1 2 3 3 3 3 3 3 3 3 3 3 3 2 2 2 2 3 3 4 3 3 3 3 3 3 2 2 2 2 2 1
0 0 0 0 0 0 0 0 1 1 1 1 1 1 1 1 1 2 2 3 3 3 3 4 4 4 4 3 2 2 2 2 2 2 2 2 3 3 3 2 3 3 3 2 2 2 2 1 1
0 0 0 0 0 0 0 0 1 1 1 1 1 1 1 2 2 2 2 2 3 3 3 3 4 4 4 3 3 3 3 3 3 3 2 2 2 2 2 2 3 3 2 2 2 2 2 1 1
0 0 0 0 0 0 0 0 1 1 1 2 2 2 2 2 2 2 2 2 2 2 2 3 3 3 3 3 3 3 3 4 3 3 3 3 2 2 2 2 2 2 2 2 2 2 2 2 2
0 0 0 0 0 0 0 0 1 1 2 2 2 2 2 2 2 2 2 2 2 2 2 3 3 3 3 3 4 4 4 5 4 4 3 3 3 3 3 3 2 2 2 2 2 2 2 2 1
0 0 0 0 0 0 0 0 1 2 2 3 3 3 3 3 2 2 2 3 3 2 3 3 3 3 3 3 4 5 6 6 5 4 4 3 3 3 3 3 3 2 2 2 2 2 1 1 1
0 0 0 0 0 0 0 0 1 2 2 2 3 3 3 3 3 3 3 3 3 3 3 3 3 3 3 4 5 6 7 6 6 4 4 3 3 3 4 4 3 2 2 2 2 1 1 1 1
Wind_Speed
6 7 6 5 2 9 14 11 10 8 8 9 9 8 10 11 9 10 7 7 8 9 10 11 12 12 13 13 14 14 15 15 16 16 16 16 17 17 17 17 17 17 17 16 17 17 17 17 16
4 5 6 2 5 11 13 10 11 10 9 8 8 9 10 11 9 10 8 8 9 10 10 11 12 12 13 13 13 14 15 16 15 15 16 16 16 17 17 17 16 16 16 16 16 16 16 15 15
5 6 3 4 11 12 12 10 11 10 7 6 7 8 8 8 8 7 9 9 9 10 11 12 11 12 12 13 13 14 15 15 15 15 16 16 16 16 16 16 16 15 16 16 16 15 15 14 14
5 4 1 8 15 13 11 10 9 9 8 7 7 10 9 7 6 9 11 9 10 10 11 13 11 12 12 13 13 14 14 14 15 15 15 15 15 15 16 15 15 15 15 15 14 14 14 13 13
5 1 6 12 14 11 9 8 6 7 7 8 7 11 10 8 10 12 10 9 10 10 11 13 11 12 12 13 13 14 14 14 14 15 15 15 15 15 15 14 14 14 14 13 13 13 13 12 12
3 1 7 11 12 9 8 7 6 9 10 9 10 11 9 8 10 10 10 8 9 10 11 13 12 11 12 12 13 13 13 13 14 14 14 14 14 13 14 14 13 13 13 12 12 12 12 11 11
2 4 9 11 11 9 7 5 6 8 9 8 7 9 10 9 10 9 9 8 8 9 9 9 11 11 11 12 12 12 12 12 13 13 13 13 13 12 12 12 12 12 12 11 11 11 11 11 10
3 2 9 9 9 10 8 6 6 7 9 8 5 7 10 11 11 10 9 8 8 7 8 8 8 8 9 11 12 11 11 11 12 12 12 12 12 12 11 10 11 11 10 10 10 10 10 9 9
4 2 8 9 8 9 9 8 8 7 10 7 6 7 13 15 13 11 9 9 8 7 6 6 8 7 7 9 11 10 10 10 10 10 10 7 7 8 8 11 10 9 9 9 9 8 8 7 8
2 5 10 7 7 8 8 8 8 8 9 9 10 12 15 15 13 11 10 10 9 8 7 5 6 6 6 6 6 5 6 6 5 6 6 5 5 5 7 10 8 8 8 8 7 5 6 4 5
2 7 7 6 6 7 9 8 7 8 8 9 12 15 15 14 12 11 9 8 9 8 7 7 6 3 5 4 4 3 4 4 5 6 5 5 4 4 4 4 6 6 5 4 6 4 2 3 3
3 6 5 6 6 7 8 8 7 5 8 9 12 15 15 14 12 11 9 8 8 7 7 7 7 5 3 3 3 3 4 3 4 5 4 4 3 3 3 2 3 3 2 2 1 2 3 3 2
4 5 5 6 7 7 8 8 7 7 8 11 14 14 14 13 11 10 9 8 8 7 7 7 5 5 4 3 2 3 3 3 4 3 3 2 2 3 3 2 1 1 2 2 1 2 2 1 1
5 5 6 7 8 8 8 8 6 8 10 13 14 14 13 12 11 10 9 8 8 8 7 7 6 5 4 3 2 2 3 2 2 3 3 2 2 2 2 2 1 1 0 1 0 1 1 0 1
6 7 8 7 7 7 8 8 7 10 12 13 13 12 12 11 11 10 9 9 8 8 7 7 6 6 5 4 3 3 2 3 2 3 3 2 2 2 1 1 1 0 1 1 1 0 1 1 1
9 9 9 7 6 7 8 7 10 11 12 13 12 12 12 11 11 9 9 8 8 8 7 7 6 7 6 4 3 2 2 2 2 2 2 2 1 1 1 1 1 1 1 1 1 1 1 0 1
11 10 9 9 6 6 7 5 10 11 12 12 12 12 12 11 11 10 10 9 9 8 8 8 7 6 6 5 4 3 2 1 2 2 1 2 2 2 2 1 0 2 1 1 2 0 1 1 1
11 10 9 8 8 7 7 4 9 11 11 11 12 12 12 12 12 11 10 10 9 9 8 8 8 7 6 5 4 3 3 3 3 2 2 2 2 2 2 2 2 2 1 1 1 2 2 2 2
7 9 8 6 6 7 7 5 7 10 11 11 11 12 12 11 11 11 10 10 10 10 10 10 9 8 7 5 5 5 5 4 4 3 3 3 3 2 2 2 2 2 1 2 3 3 2 2 2
10 10 9 7 5 6 6 6 6 8 10 10 11 11 12 11 11 11 11 11 11 11 11 10 10 10 9 7 5 3 3 3 3 3 3 4 4 4 4 3 3 2 2 2 3 3 3 2 1
12 12 10 7 6 6 6 8 8 8 8 9 10 11 11 12 12 12 12 12 11 11 12 10 11 10 10 9 7 5 4 4 4 4 4 4 4 4 3 3 3 3 3 2 3 4 4 3 2
11 9 8 9 9 7 8 7 9 9 9 10 11 11 12 12 12 12 12 12 12 11 11 11 11 11 10 10 9 9 6 5 4 3 3 4 4 4 4 4 4 4 3 2 4 3 3 4 3
6 6 9 10 10 8 8 9 5 8 9 10 11 12 12 12 12 13 12 12 11 11 10 10 11 11 10 10 10 9 8 6 4 4 4 4 4 5 5 4 4 4 4 3 4 3 4 4 4
7 8 7 9 10 11 9 9 6 6 6 7 8 10 11 11 12 12 11 10 10 10 10 10 11 11 11 11 11 10 9 7 6 5 5 5 4 4 5 5 4 4 4 3 4 4 4 4 4
12 12 9 11 10 9 6 9 4 1 2 4 4 6 9 10 11 11 11 11 10 11 10 10 11 11 12 12 11 11 10 9 8 7 6 6 4 4 4 4 4 4 3 4 4 4 4 4 4
15 16 11 9 10 8 8 9 3 1 1 1 3 4 5 8 10 10 11 11 10 11 11 11 11 11 11 11 11 10 10 8 7 8 6 5 4 4 4 4 4 4 4 4 3 3 3 3 4
14 14 11 9 7 8 8 6 5 3 2 1 2 3 4 6 8 9 9 10 10 10 11 11 11 10 10 10 10 10 10 9 7 6 7 6 5 4 5 5 5 4 4 4 4 3 3 3 4
9 11 9 10 9 10 9 9 5 5 4 3 2 2 3 4 6 7 7 8 8 8 9 9 9 9 9 9 9 8 9 9 8 7 7 5 4 4 4 4 4 4 3 4 4 3 2 3 3
11 12 10 10 9 10 8 6 2 4 2 2 2 2 3 3 5 6 6 7 7 7 7 8 8 8 8 8 8 8 8 8 8 7 7 6 5 5 5 5 4 3 3 3 3 3 2 3 3
11 11 12 11 9 9 8 4 5 3 2 2 2 3 4 4 4 5 6 6 6 6 5 6 7 7 8 8 7 7 7 7 7 7 6 6 6 5 5 4 4 4 3 3 3 3 2 2 2
Wind_Direction
221 203 218 232 152 76 68 68 72 77 72 64 58 54 57 42 38 78 94 97 93 92 93 92 81 85 84 84 86 88 91 96 95 96 96 96 97 96 96 97 98 97 97 101 100 96 100 100 102
223 208 226 246 65 76 70 70 75 69 82 91 75 68 69 65 62 94 109 103 103 97 95 87 86 86 87 87 88 90 94 97 97 98 97 97 96 96 96 98 98 98 98 98 99 98 99 101 102
220 236 271 66 60 65 77 79 88 89 86 80 79 63 58 72 87 96 107 116 107 99 96 90 87 89 89 89 90 91 95 96 94 96 95 97 97 98 98 99 99 98 98 100 101 101 101 101 102
232 213 171 73 74 68 79 93 103 104 90 77 93 86 79 69 81 105 117 117 110 105 100 93 88 89 88 91 93 95 95 96 95 95 95 96 97 99 98 99 98 98 99 100 100 101 101 102 102
244 235 94 82 78 78 85 94 98 89 86 90 93 97 88 75 97 115 122 121 112 105 101 99 91 89 88 91 95 98 96 94 95 95 95 95 96 97 98 98 99 100 101 100 99 100 99 101 101
235 162 82 83 88 91 94 99 96 92 98 105 110 108 91 106 119 125 121 117 110 108 106 106 99 91 90 94 97 98 98 97 95 96 96 96 97 98 99 99 99 100 99 99 98 98 97 101 102
356 62 79 89 99 102 99 103 93 97 105 104 112 107 113 128 128 126 123 120 110 108 108 112 116 112 102 96 96 96 97 97 97 98 98 100 102 101 100 98 97 98 99 100 99 97 97 99 103
324 103 94 88 93 96 112 107 92 102 98 109 124 120 134 141 141 135 128 120 113 109 108 110 104 109 119 114 105 100 98 99 99 101 104 109 112 111 112 110 97 98 100 99 98 97 99 103 107
268 103 84 78 85 105 128 123 107 100 114 114 90 93 122 139 144 140 138 133 126 118 111 112 114 115 112 109 116 120 114 110 116 113 116 133 120 114 118 91 97 99 100 100 99 97 103 120 126
274 77 74 66 75 114 132 126 125 133 127 120 114 111 127 146 151 152 152 146 138 134 127 115 109 116 112 107 115 121 118 115 109 103 112 107 97 95 99 105 102 102 107 114 109 119 154 181 131
43 70 85 91 94 119 129 125 132 140 131 135 140 140 148 154 157 158 156 147 140 145 140 130 122 113 114 117 118 110 110 115 117 110 110 106 115 119 120 126 132 132 143 129 134 166 105 78 71
107 84 83 99 112 127 125 128 131 115 94 120 138 146 155 161 162 161 158 154 149 153 146 137 137 136 117 106 117 133 129 125 118 118 126 117 106 102 98 102 108 127 115 93 99 85 67 64 77
125 108 97 111 130 125 129 125 119 116 110 126 138 149 157 162 161 161 160 159 156 160 156 148 152 146 143 135 144 126 120 118 117 120 108 107 118 106 97 85 79 96 107 141 120 84 88 84 111
111 120 123 128 126 136 140 131 136 126 134 139 150 158 163 164 165 164 168 169 170 173 164 160 169 158 155 157 148 138 132 124 129 127 117 116 98 93 106 128 111 83 71 42 82 121 165 159 104
154 153 144 139 145 151 160 147 137 135 150 153 160 164 167 170 173 177 177 180 179 177 168 171 175 170 173 175 177 164 153 150 137 126 136 150 134 117 142 131 168 104 111 156 211 161 223 204 197
185 189 173 146 165 168 217 139 136 152 163 164 168 168 174 178 184 186 183 188 186 182 177 182 185 175 179 182 191 178 161 149 151 161 150 156 140 174 217 186 168 192 221 210 202 227 247 278 258
197 200 179 151 176 180 221 139 140 167 175 173 175 177 182 183 192 192 192 191 190 190 187 189 194 185 185 183 186 191 180 199 199 189 181 172 194 205 236 207 243 243 244 257 274 33 278 270 281
195 197 187 172 170 198 211 166 151 177 189 184 183 184 188 191 194 194 196 195 193 193 194 195 194 194 192 190 188 198 199 203 208 204 196 211 208 205 227 209 228 250 249 261 300 286 276 274 275
206 207 193 166 158 207 213 203 176 178 196 196 191 192 194 199 194 193 196 199 197 197 197 199 201 192 195 198 201 197 199 205 205 203 192 208 219 215 237 243 229 252 242 253 254 262 247 259 275
207 207 192 157 163 220 220 223 193 189 203 203 198 198 200 196 194 194 198 201 203 201 201 201 202 198 199 198 207 209 213 213 213 208 191 209 212 218 216 227 238 243 247 248 258 265 277 277 270
208 212 199 180 173 204 229 217 199 193 207 208 208 207 207 202 199 196 199 203 204 204 204 205 206 204 205 199 200 199 200 217 206 200 201 209 212 219 235 227 243 252 254 248 258 256 257 272 262
204 209 208 192 203 202 223 237 190 189 198 206 211 209 210 208 205 202 200 203 205 204 202 204 203 205 204 202 208 210 215 220 216 212 201 201 213 221 220 227 230 243 257 255 255 253 266 265 270
198 181 203 208 222 228 212 252 189 177 206 210 210 211 209 206 205 205 203 202 204 202 199 198 199 201 201 205 208 214 222 224 218 210 206 221 212 221 227 224 232 240 252 259 273 272 270 267 273
156 162 181 214 227 229 219 240 220 184 217 225 210 207 207 204 204 204 203 199 200 200 199 196 194 199 200 203 207 213 220 223 224 220 216 216 211 214 216 224 229 237 248 249 251 256 252 265 277
193 190 193 203 216 221 194 233 236 140 222 247 236 210 203 200 200 199 198 196 196 197 197 196 193 198 200 202 207 210 215 218 220 225 219 226 222 214 209 223 228 242 242 246 248 243 263 258 260
205 214 221 218 215 200 190 227 205 156 254 248 237 217 202 198 196 196 195 194 195 195 195 195 194 199 199 202 206 209 211 216 220 220 232 222 230 229 206 215 225 237 243 241 232 248 248 248 256
201 220 234 240 237 233 199 199 196 192 202 185 174 174 185 188 189 190 190 190 191 191 192 195 193 196 198 202 204 207 210 217 220 214 220 226 221 220 210 215 220 228 232 236 236 245 260 254 252
234 209 212 231 226 228 213 211 207 189 201 175 149 139 146 157 168 176 181 184 185 187 189 193 193 194 196 200 204 203 207 210 213 216 215 220 218 216 213 217 218 225 227 225 234 241 239 243 249
195 206 218 224 239 241 222 194 160 197 194 173 130 114 120 143 154 160 164 168 171 175 178 184 188 188 191 199 202 208 205 203 202 207 210 207 209 205 206 209 216 222 226 226 228 248 248 251 262
212 209 209 218 216 243 257 154 107 139 136 124 94 88 89 109 127 138 146 153 156 160 167 175 181 185 190 190 192 196 199 197 198 201 204 203 203 205 204 205 207 216 220 221 226 237 240 246 265